LXP387 SCCF-SCEL

Flight info

Callsign LXP387
Flight time 1h 37m
Altitude 35000
Route CEPAM UQ815 ISGUD UL302 SIMOK SIMOK7B
Aircraft A320/M-SDE3FGHIRWY/LB1

Departure

Time 2026-04-24 07:04
Airport El Loa Airport (SCCF)

Arrival

Time 2026-04-24 08:41
Airport Comodoro Arturo Merino Benítez International Airport (SCEL)
Time Latitude Longitude Altitude Speed Heading
2026-04-24 07:04 -22.56096 -68.74171 11119 ft 302 kts 214°
2026-04-24 07:04 -22.57648 -68.75711 11661 ft 306 kts 223°
2026-04-24 07:04 -22.59432 -68.77003 12184 ft 312 kts 205°
2026-04-24 07:04 -22.61497 -68.77722 12840 ft 314 kts 189°
2026-04-24 07:05 -22.63671 -68.77998 13448 ft 316 kts 187°
2026-04-24 07:05 -22.65835 -68.78280 14025 ft 319 kts 188°
2026-04-24 07:05 -22.68043 -68.78588 14547 ft 321 kts 188°
2026-04-24 07:05 -22.70265 -68.78903 15056 ft 324 kts 189°
2026-04-24 07:06 -22.72510 -68.79219 15560 ft 326 kts 189°
2026-04-24 07:06 -22.74769 -68.79531 16062 ft 329 kts 189°
2026-04-24 07:06 -22.77046 -68.79843 16557 ft 331 kts 189°
2026-04-24 07:06 -22.79338 -68.80154 17054 ft 333 kts 190°
2026-04-24 07:07 -22.81647 -68.80465 17549 ft 335 kts 190°
2026-04-24 07:07 -22.83969 -68.80779 18039 ft 338 kts 191°
2026-04-24 07:07 -22.88630 -68.81406 18939 ft 342 kts 191°
2026-04-24 07:08 -22.91010 -68.81728 19245 ft 350 kts 191°
2026-04-24 07:08 -22.93472 -68.82065 19361 ft 363 kts 191°
2026-04-24 07:08 -22.96024 -68.82414 19479 ft 376 kts 191°
2026-04-24 07:08 -22.98662 -68.82774 19627 ft 388 kts 191°
2026-04-24 07:09 -23.01382 -68.82978 19967 ft 395 kts 185°
2026-04-24 07:09 -23.04141 -68.83060 20363 ft 398 kts 185°
2026-04-24 07:09 -23.06925 -68.83149 20777 ft 401 kts 186°
2026-04-24 07:09 -23.09722 -68.83242 21164 ft 404 kts 186°
2026-04-24 07:10 -23.12504 -68.83339 21569 ft 407 kts 186°
2026-04-24 07:10 -23.15341 -68.83440 21980 ft 410 kts 186°
2026-04-24 07:10 -23.18204 -68.83540 22358 ft 413 kts 186°
2026-04-24 07:10 -23.21088 -68.83638 22753 ft 416 kts 186°
2026-04-24 07:11 -23.23987 -68.83738 23139 ft 419 kts 186°
2026-04-24 07:11 -23.26913 -68.83840 23515 ft 422 kts 187°
2026-04-24 07:11 -23.29856 -68.83942 23846 ft 424 kts 187°
2026-04-24 07:11 -23.32812 -68.84042 24149 ft 427 kts 187°
2026-04-24 07:12 -23.35728 -68.84292 24442 ft 424 kts 195°
2026-04-24 07:12 -23.38603 -68.84972 24739 ft 423 kts 198°
2026-04-24 07:12 -23.41470 -68.85711 25036 ft 425 kts 199°
2026-04-24 07:12 -23.44357 -68.86455 25338 ft 427 kts 199°
2026-04-24 07:13 -23.47258 -68.87203 25640 ft 429 kts 199°
2026-04-24 07:13 -23.50165 -68.87952 25936 ft 431 kts 199°
2026-04-24 07:13 -23.53094 -68.88703 26224 ft 433 kts 199°
2026-04-24 07:13 -23.56032 -68.89454 26513 ft 435 kts 199°
2026-04-24 07:14 -23.58982 -68.90207 26786 ft 436 kts 199°
2026-04-24 07:14 -23.61907 -68.90956 27049 ft 438 kts 199°
2026-04-24 07:14 -23.64877 -68.91721 27310 ft 440 kts 199°
2026-04-24 07:14 -23.67906 -68.92501 27583 ft 442 kts 199°
2026-04-24 07:15 -23.70904 -68.93274 27856 ft 444 kts 199°
2026-04-24 07:15 -23.73921 -68.94051 28123 ft 446 kts 199°
2026-04-24 07:15 -23.76949 -68.94832 28401 ft 448 kts 199°
2026-04-24 07:15 -23.79984 -68.95614 28684 ft 450 kts 199°
2026-04-24 07:16 -23.83038 -68.96403 28966 ft 451 kts 199°
2026-04-24 07:16 -23.86056 -68.97182 29244 ft 453 kts 199°
2026-04-24 07:16 -23.89130 -68.97974 29511 ft 455 kts 199°
2026-04-24 07:16 -23.92215 -68.98770 29864 ft 455 kts 200°
2026-04-24 07:17 -23.95289 -68.99562 30272 ft 453 kts 200°
2026-04-24 07:17 -23.98357 -69.00350 30625 ft 452 kts 200°
2026-04-24 07:17 -24.01414 -69.01135 30977 ft 451 kts 200°
2026-04-24 07:17 -24.04468 -69.01920 31322 ft 450 kts 200°
2026-04-24 07:18 -24.07469 -69.02697 31682 ft 449 kts 200°
2026-04-24 07:18 -24.10502 -69.03485 32067 ft 448 kts 200°
2026-04-24 07:18 -24.13525 -69.04275 32448 ft 446 kts 201°
2026-04-24 07:18 -24.16546 -69.05062 32817 ft 446 kts 201°
2026-04-24 07:19 -24.19559 -69.05843 33200 ft 445 kts 201°
2026-04-24 07:19 -24.22570 -69.06620 33570 ft 444 kts 201°
2026-04-24 07:19 -24.25569 -69.07394 33931 ft 443 kts 201°
2026-04-24 07:19 -24.28564 -69.08169 34268 ft 441 kts 201°
2026-04-24 07:20 -24.31549 -69.08943 34543 ft 441 kts 201°
2026-04-24 07:20 -24.34532 -69.09719 34820 ft 440 kts 201°
2026-04-24 07:20 -24.37466 -69.10487 35076 ft 440 kts 202°
2026-04-24 07:20 -24.40446 -69.11266 35164 ft 441 kts 202°
2026-04-24 07:21 -24.46498 -69.12847 35187 ft 453 kts 202°
2026-04-24 07:21 -24.52670 -69.14464 35190 ft 457 kts 202°
2026-04-24 07:22 -24.58868 -69.16071 35195 ft 457 kts 202°
2026-04-24 07:22 -24.65043 -69.17684 35198 ft 457 kts 202°
2026-04-24 07:23 -24.71234 -69.19297 35202 ft 457 kts 202°
2026-04-24 07:23 -24.77412 -69.20907 35213 ft 456 kts 202°
2026-04-24 07:24 -24.83547 -69.22521 35226 ft 456 kts 202°
2026-04-24 07:24 -24.89717 -69.24150 35227 ft 456 kts 202°
2026-04-24 07:25 -24.95887 -69.25769 35236 ft 456 kts 202°
2026-04-24 07:25 -25.02018 -69.27374 35235 ft 456 kts 203°
2026-04-24 07:26 -25.08186 -69.28991 35238 ft 456 kts 203°
2026-04-24 07:26 -25.14352 -69.30616 35238 ft 455 kts 203°
2026-04-24 07:27 -25.20518 -69.32241 35238 ft 455 kts 203°
2026-04-24 07:27 -25.26677 -69.33868 35235 ft 455 kts 203°
2026-04-24 07:28 -25.32806 -69.35477 35231 ft 455 kts 203°
2026-04-24 07:28 -25.38966 -69.37104 35227 ft 455 kts 204°
2026-04-24 07:29 -25.45122 -69.38741 35222 ft 455 kts 204°
2026-04-24 07:29 -25.51279 -69.40377 35210 ft 455 kts 204°
2026-04-24 07:30 -25.57309 -69.42186 35204 ft 447 kts 209°
2026-04-24 07:30 -25.63206 -69.44406 35204 ft 447 kts 209°
2026-04-24 07:31 -25.69101 -69.46621 35192 ft 446 kts 209°
2026-04-24 07:31 -25.74973 -69.48830 35195 ft 446 kts 209°
2026-04-24 07:32 -25.80852 -69.51048 35193 ft 445 kts 209°
2026-04-24 07:32 -25.86715 -69.53252 35188 ft 445 kts 209°
2026-04-24 07:33 -25.92575 -69.55455 35184 ft 444 kts 210°
2026-04-24 07:33 -25.98418 -69.57670 35179 ft 443 kts 210°
2026-04-24 07:34 -26.04214 -69.59860 35174 ft 443 kts 210°
2026-04-24 07:34 -26.10041 -69.62070 35161 ft 442 kts 210°
2026-04-24 07:35 -26.15861 -69.64280 35170 ft 442 kts 210°
2026-04-24 07:35 -26.21637 -69.66470 35172 ft 441 kts 210°
2026-04-24 07:36 -26.27443 -69.68676 35169 ft 441 kts 210°
2026-04-24 07:36 -26.33245 -69.70883 35165 ft 440 kts 210°
2026-04-24 07:37 -26.39037 -69.73083 35170 ft 440 kts 210°
2026-04-24 07:37 -26.44827 -69.75291 35167 ft 439 kts 210°
2026-04-24 07:38 -26.50571 -69.77488 35165 ft 439 kts 211°
2026-04-24 07:38 -26.56349 -69.79699 35164 ft 439 kts 211°
2026-04-24 07:39 -26.62124 -69.81904 35164 ft 438 kts 211°
2026-04-24 07:39 -26.67890 -69.84102 35163 ft 437 kts 211°
2026-04-24 07:40 -26.73603 -69.86296 35159 ft 437 kts 211°
2026-04-24 07:40 -26.79352 -69.88497 35156 ft 437 kts 211°
2026-04-24 07:41 -26.85094 -69.90703 35154 ft 436 kts 211°
2026-04-24 07:41 -26.90823 -69.92906 35152 ft 435 kts 211°
2026-04-24 07:42 -26.96513 -69.95097 35151 ft 435 kts 211°
2026-04-24 07:42 -27.02233 -69.97302 35147 ft 434 kts 211°
2026-04-24 07:43 -27.07947 -69.99508 35145 ft 434 kts 212°
2026-04-24 07:43 -27.13657 -70.01714 35141 ft 434 kts 211°
2026-04-24 07:44 -27.19361 -70.03916 35140 ft 434 kts 212°
2026-04-24 07:44 -27.25024 -70.06101 35136 ft 433 kts 212°
2026-04-24 07:45 -27.30729 -70.08289 35132 ft 433 kts 211°
2026-04-24 07:45 -27.36450 -70.10428 35136 ft 433 kts 211°
2026-04-24 07:46 -27.42172 -70.12563 35136 ft 433 kts 212°
2026-04-24 07:46 -27.47873 -70.14707 35138 ft 432 kts 212°
2026-04-24 07:47 -27.53522 -70.16848 35137 ft 431 kts 212°
2026-04-24 07:47 -27.59201 -70.18997 35138 ft 430 kts 212°
2026-04-24 07:48 -27.64876 -70.21139 35136 ft 430 kts 212°
2026-04-24 07:48 -27.70536 -70.23288 35132 ft 429 kts 212°
2026-04-24 07:49 -27.76152 -70.25416 35135 ft 429 kts 212°
2026-04-24 07:49 -27.81807 -70.27557 35132 ft 428 kts 212°
2026-04-24 07:50 -27.87453 -70.29697 35136 ft 428 kts 213°
2026-04-24 07:50 -27.93085 -70.31842 35135 ft 427 kts 213°
2026-04-24 07:51 -27.98683 -70.33970 35141 ft 427 kts 213°
2026-04-24 07:51 -28.04303 -70.36108 35141 ft 426 kts 213°
2026-04-24 07:52 -28.09919 -70.38249 35128 ft 425 kts 213°
2026-04-24 07:52 -28.15518 -70.40387 35142 ft 425 kts 213°
2026-04-24 07:53 -28.21078 -70.42514 35143 ft 424 kts 213°
2026-04-24 07:53 -28.26662 -70.44649 35138 ft 423 kts 213°
2026-04-24 07:54 -28.32240 -70.46786 35136 ft 422 kts 213°
2026-04-24 07:54 -28.37797 -70.48918 35141 ft 421 kts 214°
2026-04-24 07:55 -28.43350 -70.51056 35139 ft 421 kts 213°
2026-04-24 07:55 -28.48868 -70.53152 35138 ft 426 kts 210°
2026-04-24 07:56 -28.51840 -70.53808 35138 ft 446 kts 201°
2026-04-24 07:56 -28.54946 -70.54108 35142 ft 448 kts 200°
2026-04-24 07:56 -28.61168 -70.54664 35141 ft 448 kts 200°
2026-04-24 07:57 -28.67382 -70.55222 35136 ft 447 kts 200°
2026-04-24 07:57 -28.73532 -70.55793 35141 ft 446 kts 200°
2026-04-24 07:58 -28.79713 -70.56377 35144 ft 445 kts 200°
2026-04-24 07:58 -28.85880 -70.56967 35156 ft 444 kts 200°
2026-04-24 07:59 -28.92090 -70.57557 35160 ft 445 kts 200°
2026-04-24 07:59 -28.98246 -70.58138 35161 ft 443 kts 201°
2026-04-24 08:00 -29.03346 -70.58635 35164 ft 443 kts 201°
2026-04-24 08:00 -29.10490 -70.59332 35171 ft 444 kts 201°
2026-04-24 08:01 -29.16643 -70.59924 35180 ft 444 kts 201°
2026-04-24 08:01 -29.21750 -70.60417 35177 ft 442 kts 201°
2026-04-24 08:02 -29.27886 -70.61021 35189 ft 444 kts 201°
2026-04-24 08:02 -29.35042 -70.61714 35193 ft 444 kts 201°
2026-04-24 08:03 -29.40186 -70.62215 35189 ft 442 kts 201°
2026-04-24 08:03 -29.46275 -70.62805 35197 ft 443 kts 201°
2026-04-24 08:04 -29.52420 -70.63403 35189 ft 443 kts 201°
2026-04-24 08:04 -29.58553 -70.64007 35198 ft 443 kts 201°
2026-04-24 08:05 -29.64687 -70.64604 35185 ft 442 kts 201°
2026-04-24 08:05 -29.70776 -70.65200 35177 ft 442 kts 201°
2026-04-24 08:06 -29.76912 -70.65805 35183 ft 443 kts 201°
2026-04-24 08:06 -29.83048 -70.66403 35178 ft 443 kts 201°
2026-04-24 08:07 -29.89180 -70.67005 35175 ft 442 kts 201°
2026-04-24 08:07 -29.95305 -70.67599 35173 ft 442 kts 202°
2026-04-24 08:08 -30.01392 -70.68201 35171 ft 442 kts 201°
2026-04-24 08:09 -30.10585 -70.69109 35178 ft 443 kts 201°
2026-04-24 08:09 -30.16724 -70.69707 35176 ft 443 kts 201°
2026-04-24 08:10 -30.22859 -70.70316 35181 ft 443 kts 200°
2026-04-24 08:10 -30.28957 -70.70931 35169 ft 443 kts 200°
2026-04-24 08:11 -30.35111 -70.71543 35179 ft 444 kts 200°
2026-04-24 08:11 -30.41263 -70.72146 35186 ft 444 kts 200°
2026-04-24 08:12 -30.47424 -70.72748 35185 ft 444 kts 200°
2026-04-24 08:12 -30.53581 -70.73373 35178 ft 444 kts 199°
2026-04-24 08:13 -30.59690 -70.73990 35173 ft 443 kts 199°
2026-04-24 08:13 -30.65847 -70.74598 35176 ft 444 kts 199°
2026-04-24 08:14 -30.72012 -70.75188 35168 ft 445 kts 199°
2026-04-24 08:14 -30.78178 -70.75782 35172 ft 445 kts 199°
2026-04-24 08:15 -30.84306 -70.76376 35180 ft 445 kts 198°
2026-04-24 08:15 -30.90473 -70.76979 35184 ft 445 kts 198°
2026-04-24 08:16 -30.96645 -70.77582 35184 ft 444 kts 198°
2026-04-24 08:16 -31.02795 -70.78181 35159 ft 441 kts 198°
2026-04-24 08:17 -31.08935 -70.78784 35183 ft 445 kts 198°
2026-04-24 08:17 -31.15110 -70.79393 35203 ft 446 kts 197°
2026-04-24 08:18 -31.21290 -70.79988 35203 ft 446 kts 197°
2026-04-24 08:18 -31.27420 -70.80583 35200 ft 445 kts 197°
2026-04-24 08:19 -31.33588 -70.81186 35201 ft 445 kts 197°
2026-04-24 08:19 -31.39770 -70.81794 35204 ft 445 kts 197°
2026-04-24 08:20 -31.45947 -70.82399 35207 ft 446 kts 197°
2026-04-24 08:20 -31.52083 -70.83003 35173 ft 435 kts 196°
2026-04-24 08:21 -31.58025 -70.83584 35175 ft 431 kts 197°
2026-04-24 08:21 -31.64013 -70.84190 35182 ft 433 kts 197°
2026-04-24 08:22 -31.70008 -70.84793 35161 ft 432 kts 196°
2026-04-24 08:22 -31.75991 -70.85287 35167 ft 441 kts 189°
2026-04-24 08:23 -31.82136 -70.85063 35168 ft 442 kts 189°
2026-04-24 08:23 -31.88285 -70.84839 35171 ft 442 kts 189°
2026-04-24 08:24 -31.94431 -70.84621 35155 ft 442 kts 189°
2026-04-24 08:24 -31.97518 -70.84514 34392 ft 448 kts 188°
2026-04-24 08:24 -32.00623 -70.84403 33583 ft 446 kts 187°
2026-04-24 08:24 -32.03718 -70.84290 32628 ft 444 kts 187°
2026-04-24 08:25 -32.06745 -70.84175 31736 ft 438 kts 186°
2026-04-24 08:25 -32.09766 -70.84063 30836 ft 432 kts 185°
2026-04-24 08:25 -32.12749 -70.83956 29946 ft 426 kts 184°
2026-04-24 08:25 -32.15690 -70.83848 28949 ft 420 kts 184°
2026-04-24 08:26 -32.18599 -70.83739 27980 ft 415 kts 184°
2026-04-24 08:26 -32.21472 -70.83635 27051 ft 411 kts 184°
2026-04-24 08:26 -32.24310 -70.83537 26148 ft 407 kts 184°
2026-04-24 08:26 -32.27127 -70.83437 25278 ft 403 kts 184°
2026-04-24 08:27 -32.29920 -70.83335 24416 ft 400 kts 184°
2026-04-24 08:27 -32.32654 -70.83238 23582 ft 397 kts 184°
2026-04-24 08:27 -32.35409 -70.83143 22613 ft 396 kts 183°
2026-04-24 08:27 -32.38152 -70.83048 21669 ft 394 kts 183°
2026-04-24 08:28 -32.40886 -70.82954 20757 ft 391 kts 182°
2026-04-24 08:28 -32.43596 -70.82862 19874 ft 389 kts 182°
2026-04-24 08:28 -32.46288 -70.82765 19013 ft 385 kts 182°
2026-04-24 08:28 -32.48953 -70.82663 18131 ft 381 kts 181°
2026-04-24 08:29 -32.51582 -70.82563 17185 ft 375 kts 181°
2026-04-24 08:29 -32.54170 -70.82465 16271 ft 370 kts 181°
2026-04-24 08:29 -32.56727 -70.82373 15570 ft 363 kts 181°
2026-04-24 08:29 -32.59188 -70.82286 15343 ft 354 kts 181°
2026-04-24 08:30 -32.61634 -70.82199 14951 ft 351 kts 181°
2026-04-24 08:30 -32.64075 -70.82115 14537 ft 350 kts 180°
2026-04-24 08:30 -32.66468 -70.82031 14388 ft 338 kts 180°
2026-04-24 08:30 -32.68766 -70.81946 14267 ft 322 kts 180°
2026-04-24 08:31 -32.70933 -70.81860 14086 ft 304 kts 180°
2026-04-24 08:31 -32.73014 -70.81780 13653 ft 295 kts 180°
2026-04-24 08:31 -32.75057 -70.81707 13347 ft 292 kts 180°
2026-04-24 08:31 -32.77078 -70.81637 13097 ft 290 kts 180°
2026-04-24 08:32 -32.79093 -70.81568 12745 ft 290 kts 180°
2026-04-24 08:32 -32.81098 -70.81499 12341 ft 294 kts 180°
2026-04-24 08:32 -32.83127 -70.81431 12069 ft 291 kts 180°
2026-04-24 08:32 -32.85161 -70.81360 11753 ft 291 kts 180°
2026-04-24 08:33 -32.87180 -70.81287 11464 ft 289 kts 180°
2026-04-24 08:33 -32.89186 -70.81215 11158 ft 288 kts 180°
2026-04-24 08:33 -32.91187 -70.81141 10865 ft 287 kts 180°
2026-04-24 08:33 -32.93169 -70.81294 10572 ft 285 kts 189°
2026-04-24 08:34 -32.95134 -70.81594 10271 ft 284 kts 189°
2026-04-24 08:34 -32.97095 -70.81890 9978 ft 283 kts 188°
2026-04-24 08:34 -32.99017 -70.82178 9594 ft 280 kts 188°
2026-04-24 08:34 -33.00954 -70.82368 9053 ft 279 kts 179°
2026-04-24 08:35 -33.02883 -70.82263 8510 ft 277 kts 178°
2026-04-24 08:35 -33.04798 -70.82159 8021 ft 274 kts 178°
2026-04-24 08:35 -33.06696 -70.82053 7531 ft 272 kts 177°
2026-04-24 08:35 -33.08576 -70.81946 7049 ft 269 kts 177°
2026-04-24 08:36 -33.10436 -70.81838 6584 ft 267 kts 177°
2026-04-24 08:36 -33.12256 -70.81733 6077 ft 265 kts 177°
2026-04-24 08:36 -33.14110 -70.81626 5497 ft 265 kts 177°
2026-04-24 08:36 -33.15907 -70.81522 5286 ft 251 kts 177°
2026-04-24 08:37 -33.17589 -70.81425 5156 ft 233 kts 177°
2026-04-24 08:37 -33.19153 -70.81337 5050 ft 219 kts 177°
2026-04-24 08:37 -33.20625 -70.81258 4838 ft 206 kts 177°
2026-04-24 08:37 -33.22022 -70.81184 4560 ft 196 kts 177°
2026-04-24 08:38 -33.23354 -70.81113 4306 ft 187 kts 177°
2026-04-24 08:38 -33.24638 -70.81044 4059 ft 183 kts 177°
2026-04-24 08:38 -33.25886 -70.80977 3839 ft 181 kts 177°
2026-04-24 08:38 -33.27137 -70.80910 3604 ft 179 kts 177°
2026-04-24 08:39 -33.28371 -70.80844 3368 ft 176 kts 177°
2026-04-24 08:39 -33.29567 -70.80780 3119 ft 167 kts 177°
2026-04-24 08:39 -33.30695 -70.80720 2889 ft 158 kts 177°
2026-04-24 08:39 -33.31778 -70.80662 2675 ft 154 kts 177°
2026-04-24 08:40 -33.32846 -70.80605 2461 ft 153 kts 177°
2026-04-24 08:40 -33.33901 -70.80548 2249 ft 151 kts 177°
2026-04-24 08:40 -33.34937 -70.80493 2050 ft 150 kts 177°
2026-04-24 08:40 -33.35977 -70.80435 1845 ft 149 kts 177°
2026-04-24 08:41 -33.37010 -70.80379 1645 ft 148 kts 178°
2026-04-24 08:41 -33.37988 -70.80332 1574 ft 122 kts 177°
2026-04-24 08:41 -33.38666 -70.80295 1574 ft 73 kts 177°
2026-04-24 08:41 -33.39007 -70.80276 1574 ft 35 kts 178°
2026-04-24 08:42 -33.39188 -70.80263 1573 ft 25 kts 171°
2026-04-24 08:42 -33.39354 -70.80183 1571 ft 25 kts 149°
2026-04-24 08:42 -33.39443 -70.80115 1568 ft 7 kts 148°
2026-04-24 08:42 -33.39487 -70.80082 1566 ft 9 kts 145°
2026-04-24 08:43 -33.39526 -70.80009 1565 ft 12 kts 110°
2026-04-24 08:43 -33.39529 -70.79906 1565 ft 13 kts 88°
2026-04-24 08:43 -33.39526 -70.79790 1565 ft 15 kts 88°
2026-04-24 08:43 -33.39520 -70.79662 1564 ft 16 kts 86°
2026-04-24 08:44 -33.39516 -70.79527 1564 ft 17 kts 88°
2026-04-24 08:44 -33.39508 -70.79386 1564 ft 17 kts 86°
2026-04-24 08:44 -33.39503 -70.79239 1564 ft 18 kts 88°
2026-04-24 08:44 -33.39499 -70.79130 1564 ft 10 kts 87°
2026-04-24 08:45 -33.39496 -70.79063 1564 ft 7 kts 92°
2026-04-24 08:45 -33.39515 -70.79045 1564 ft 1 kts 187°
2026-04-24 08:45 -33.39526 -70.79049 1564 ft 2 kts 194°
2026-04-24 08:45 -33.39542 -70.79053 1564 ft 3 kts 192°
2026-04-24 08:46 -33.39561 -70.79059 1564 ft 3 kts 193°
2026-04-24 08:46 -33.39571 -70.79062 1564 ft 0 kts 193°
2026-04-24 08:46 -33.39572 -70.79062 1564 ft 0 kts 193°